Year,Month,Day,Hour,Minute,Value (Times are PST for temperature in C)
2010,06,19,00,00,15.30
2010,06,19,00,01,15.30
2010,06,19,00,02,15.30
2010,06,19,00,03,15.30
2010,06,19,00,04,15.30
2010,06,19,00,05,15.30
2010,06,19,00,06,15.30
2010,06,19,00,07,15.30
2010,06,19,00,08,15.30
2010,06,19,00,09,15.30
2010,06,19,00,10,15.30
2010,06,19,00,11,15.20
2010,06,19,00,12,15.20
2010,06,19,00,13,15.20
2010,06,19,00,14,15.20
2010,06,19,00,15,15.20
2010,06,19,00,16,15.20
2010,06,19,00,17,15.20
2010,06,19,00,18,15.20
2010,06,19,00,19,15.20
2010,06,19,00,20,15.10
2010,06,19,00,21,15.10
2010,06,19,00,22,15.10
2010,06,19,00,23,15.10
2010,06,19,00,24,15.10
2010,06,19,00,25,15.10
2010,06,19,00,26,15.10
2010,06,19,00,27,15.10
2010,06,19,00,28,15.10
2010,06,19,00,29,15.10
2010,06,19,00,30,15.10
2010,06,19,00,31,15.10
2010,06,19,00,32,15.10
2010,06,19,00,33,15.10
2010,06,19,00,34,15.10
2010,06,19,00,35,15.10
2010,06,19,00,36,15.10
2010,06,19,00,37,15.10
2010,06,19,00,38,15.10
2010,06,19,00,39,15.10
2010,06,19,00,40,15.10
2010,06,19,00,41,15.10
2010,06,19,00,42,15.10
2010,06,19,00,43,15.10
2010,06,19,00,44,15.10
2010,06,19,00,45,15.10
2010,06,19,00,46,15.10
2010,06,19,00,47,15.10
2010,06,19,00,48,15.10
2010,06,19,00,49,15.00
2010,06,19,00,50,15.00
2010,06,19,00,51,15.00
2010,06,19,00,52,15.00
2010,06,19,00,53,15.00
2010,06,19,00,54,15.00
2010,06,19,00,55,15.00
2010,06,19,00,56,14.90
2010,06,19,00,57,14.90
2010,06,19,00,58,14.90
2010,06,19,00,59,14.90
2010,06,19,01,00,14.90
2010,06,19,01,01,14.90
2010,06,19,01,02,14.80
2010,06,19,01,03,14.80
2010,06,19,01,04,14.80
2010,06,19,01,05,14.80
2010,06,19,01,06,14.80
2010,06,19,01,07,14.80
2010,06,19,01,08,14.80
2010,06,19,01,09,14.80
2010,06,19,01,10,14.80
2010,06,19,01,11,14.80
2010,06,19,01,12,14.80
2010,06,19,01,13,14.80
2010,06,19,01,14,14.80
2010,06,19,01,15,14.70
2010,06,19,01,16,14.70
2010,06,19,01,17,14.70
2010,06,19,01,18,14.70
2010,06,19,01,19,14.70
2010,06,19,01,20,14.70
2010,06,19,01,21,14.70
2010,06,19,01,22,14.60
2010,06,19,01,23,14.60
2010,06,19,01,24,14.60
2010,06,19,01,25,14.60
2010,06,19,01,26,14.60
2010,06,19,01,27,14.60
2010,06,19,01,28,14.60
2010,06,19,01,29,14.60
2010,06,19,01,30,14.60
2010,06,19,01,31,14.50
2010,06,19,01,32,14.50
2010,06,19,01,33,14.50
2010,06,19,01,34,14.50
2010,06,19,01,35,14.40
2010,06,19,01,36,14.40
2010,06,19,01,37,14.40
2010,06,19,01,38,14.30
2010,06,19,01,39,14.30
2010,06,19,01,40,14.20
2010,06,19,01,41,14.20
2010,06,19,01,42,14.20
2010,06,19,01,43,14.10
2010,06,19,01,44,14.10
2010,06,19,01,45,14.00
2010,06,19,01,46,14.00
2010,06,19,01,47,13.90
2010,06,19,01,48,13.90
2010,06,19,01,49,13.90
2010,06,19,01,50,13.80
2010,06,19,01,51,13.80
2010,06,19,01,52,13.70
2010,06,19,01,53,13.70
2010,06,19,01,54,13.70
2010,06,19,01,55,13.70
2010,06,19,01,56,13.70
2010,06,19,01,57,13.70
2010,06,19,01,58,13.60
2010,06,19,01,59,13.60
2010,06,19,02,00,13.60
2010,06,19,02,01,13.60
2010,06,19,02,02,13.50
2010,06,19,02,03,13.50
2010,06,19,02,04,13.50
2010,06,19,02,05,13.50
2010,06,19,02,06,13.40
2010,06,19,02,07,13.40
2010,06,19,02,08,13.30
2010,06,19,02,09,13.30
2010,06,19,02,10,13.30
2010,06,19,02,11,13.30
2010,06,19,02,12,13.30
2010,06,19,02,13,13.20
2010,06,19,02,14,13.20
2010,06,19,02,15,13.20
2010,06,19,02,16,13.20
2010,06,19,02,17,13.10
2010,06,19,02,18,13.10
2010,06,19,02,19,13.10
2010,06,19,02,20,13.00
2010,06,19,02,21,13.00
2010,06,19,02,22,13.00
2010,06,19,02,23,12.90
2010,06,19,02,24,12.90
2010,06,19,02,25,12.90
2010,06,19,02,26,12.80
2010,06,19,02,27,12.80
2010,06,19,02,28,12.80
2010,06,19,02,29,12.80
2010,06,19,02,30,12.80
2010,06,19,02,31,12.80
2010,06,19,02,32,12.80
2010,06,19,02,33,12.80
2010,06,19,02,34,12.80
2010,06,19,02,35,12.80
2010,06,19,02,36,12.80
2010,06,19,02,37,12.80
2010,06,19,02,38,12.80
2010,06,19,02,39,12.80
2010,06,19,02,40,12.80
2010,06,19,02,41,12.80
2010,06,19,02,42,12.80
2010,06,19,02,43,12.80
2010,06,19,02,44,12.80
2010,06,19,02,45,12.80
2010,06,19,02,46,12.80
2010,06,19,02,47,12.80
2010,06,19,02,48,12.80
2010,06,19,02,49,12.80
2010,06,19,02,50,12.80
2010,06,19,02,51,12.80
2010,06,19,02,52,12.80
2010,06,19,02,53,12.80
2010,06,19,02,54,12.80
2010,06,19,02,55,12.80
2010,06,19,02,56,12.80
2010,06,19,02,57,12.80
2010,06,19,02,58,12.70
2010,06,19,02,59,12.70
2010,06,19,03,00,12.70
2010,06,19,03,01,12.60
2010,06,19,03,02,12.60
2010,06,19,03,03,12.60
2010,06,19,03,04,12.60
2010,06,19,03,05,12.50
2010,06,19,03,06,12.50
2010,06,19,03,07,12.50
2010,06,19,03,08,12.40
2010,06,19,03,09,12.40
2010,06,19,03,10,12.40
2010,06,19,03,11,12.30
2010,06,19,03,12,12.30
2010,06,19,03,13,12.30
2010,06,19,03,14,12.20
2010,06,19,03,15,12.20
2010,06,19,03,16,12.10
2010,06,19,03,17,12.10
2010,06,19,03,18,12.10
2010,06,19,03,19,12.00
2010,06,19,03,20,12.00
2010,06,19,03,21,12.00
2010,06,19,03,22,11.90
2010,06,19,03,23,11.90
2010,06,19,03,24,11.90
2010,06,19,03,25,11.90
2010,06,19,03,26,11.90
2010,06,19,03,27,11.90
2010,06,19,03,28,11.90
2010,06,19,03,29,11.90
2010,06,19,03,30,11.90
2010,06,19,03,31,11.90
2010,06,19,03,32,11.90
2010,06,19,03,33,11.90
2010,06,19,03,34,11.80
2010,06,19,03,35,11.80
2010,06,19,03,36,11.80
2010,06,19,03,37,11.70
2010,06,19,03,38,11.70
2010,06,19,03,39,11.70
2010,06,19,03,40,11.70
2010,06,19,03,41,11.60
2010,06,19,03,42,11.60
2010,06,19,03,43,11.60
2010,06,19,03,44,11.60
2010,06,19,03,45,11.60
2010,06,19,03,46,11.60
2010,06,19,03,47,11.60
2010,06,19,03,48,11.60
2010,06,19,03,49,11.60
2010,06,19,03,50,11.60
2010,06,19,03,51,11.60
2010,06,19,03,52,11.60
2010,06,19,03,53,11.60
2010,06,19,03,54,11.60
2010,06,19,03,55,11.60
2010,06,19,03,56,11.60
2010,06,19,03,57,11.60
2010,06,19,03,58,11.60
2010,06,19,03,59,11.60
2010,06,19,04,00,11.60
2010,06,19,04,01,11.60
2010,06,19,04,02,11.60
2010,06,19,04,03,11.60
2010,06,19,04,04,11.70
2010,06,19,04,05,11.70
2010,06,19,04,06,11.70
2010,06,19,04,07,11.70
2010,06,19,04,08,11.70
2010,06,19,04,09,11.60
2010,06,19,04,10,11.60
2010,06,19,04,11,11.60
2010,06,19,04,12,11.60
2010,06,19,04,13,11.60
2010,06,19,04,14,11.60
2010,06,19,04,15,11.60
2010,06,19,04,16,11.60
2010,06,19,04,17,11.60
2010,06,19,04,18,11.60
2010,06,19,04,19,11.60
2010,06,19,04,20,11.50
2010,06,19,04,21,11.40
2010,06,19,04,22,11.40
2010,06,19,04,23,11.40
2010,06,19,04,24,11.40
2010,06,19,04,25,11.40
2010,06,19,04,26,11.40
2010,06,19,04,27,11.40
2010,06,19,04,28,11.40
2010,06,19,04,29,11.40
2010,06,19,04,30,11.40
2010,06,19,04,31,11.40
2010,06,19,04,32,11.40
2010,06,19,04,33,11.40
2010,06,19,04,34,11.40
2010,06,19,04,35,11.40
2010,06,19,04,36,11.30
2010,06,19,04,37,11.30
2010,06,19,04,38,11.30
2010,06,19,04,39,11.40
2010,06,19,04,40,11.40
2010,06,19,04,41,11.40
2010,06,19,04,42,11.40
2010,06,19,04,43,11.40
2010,06,19,04,44,11.40
2010,06,19,04,45,11.40
2010,06,19,04,46,11.50
2010,06,19,04,47,11.60
2010,06,19,04,48,11.60
2010,06,19,04,49,11.60
2010,06,19,04,50,11.60
2010,06,19,04,51,11.60
2010,06,19,04,52,11.60
2010,06,19,04,53,11.60
2010,06,19,04,54,11.60
2010,06,19,04,55,11.70
2010,06,19,04,56,11.70
2010,06,19,04,57,11.70
2010,06,19,04,58,11.70
2010,06,19,04,59,11.70
2010,06,19,05,00,11.70
2010,06,19,05,01,11.70
2010,06,19,05,02,11.70
2010,06,19,05,03,11.70
2010,06,19,05,04,11.60
2010,06,19,05,05,11.60
2010,06,19,05,06,11.60
2010,06,19,05,07,11.60
2010,06,19,05,08,11.50
2010,06,19,05,09,11.40
2010,06,19,05,10,11.40
2010,06,19,05,11,11.40
2010,06,19,05,12,11.40
2010,06,19,05,13,11.40
2010,06,19,05,14,11.30
2010,06,19,05,15,11.30
2010,06,19,05,16,11.30
2010,06,19,05,17,11.20
2010,06,19,05,18,11.20
2010,06,19,05,19,11.20
2010,06,19,05,20,11.20
2010,06,19,05,21,11.20
2010,06,19,05,22,11.20
2010,06,19,05,23,11.20
2010,06,19,05,24,11.20
2010,06,19,05,25,11.20
2010,06,19,05,26,11.10
2010,06,19,05,27,11.10
2010,06,19,05,28,11.10
2010,06,19,05,29,11.10
2010,06,19,05,30,11.10
2010,06,19,05,31,11.10
2010,06,19,05,32,11.10
2010,06,19,05,33,11.10
2010,06,19,05,34,11.10
2010,06,19,05,35,11.10
2010,06,19,05,36,11.10
2010,06,19,05,37,11.10
2010,06,19,05,38,11.10
2010,06,19,05,39,11.00
2010,06,19,05,40,10.90
2010,06,19,05,41,10.90
2010,06,19,05,42,10.90
2010,06,19,05,43,10.90
2010,06,19,05,44,10.90
2010,06,19,05,45,11.00
2010,06,19,05,46,11.10
2010,06,19,05,47,11.10
2010,06,19,05,48,11.10
2010,06,19,05,49,11.10
2010,06,19,05,50,11.10
2010,06,19,05,51,11.10
2010,06,19,05,52,11.10
2010,06,19,05,53,11.10
2010,06,19,05,54,11.10
2010,06,19,05,55,11.10
2010,06,19,05,56,11.10
2010,06,19,05,57,11.10
2010,06,19,05,58,11.10
2010,06,19,05,59,11.10
2010,06,19,06,00,11.10
2010,06,19,06,01,11.10
2010,06,19,06,02,11.10
2010,06,19,06,03,11.10
2010,06,19,06,04,11.10
2010,06,19,06,05,11.10
2010,06,19,06,06,11.00
2010,06,19,06,07,10.90
2010,06,19,06,08,10.90
2010,06,19,06,09,10.90
2010,06,19,06,10,10.90
2010,06,19,06,11,10.90
2010,06,19,06,12,10.90
2010,06,19,06,13,10.90
2010,06,19,06,14,10.90
2010,06,19,06,15,10.90
2010,06,19,06,16,10.90
2010,06,19,06,17,10.90
2010,06,19,06,18,10.90
2010,06,19,06,19,10.90
2010,06,19,06,20,10.90
2010,06,19,06,21,11.00
2010,06,19,06,22,11.10
2010,06,19,06,23,11.10
2010,06,19,06,24,11.10
2010,06,19,06,25,11.10
2010,06,19,06,26,11.10
2010,06,19,06,27,11.10
2010,06,19,06,28,11.10
2010,06,19,06,29,11.10
2010,06,19,06,30,11.10
2010,06,19,06,31,11.10
2010,06,19,06,32,11.10
2010,06,19,06,33,11.10
2010,06,19,06,34,11.10
2010,06,19,06,35,11.10
2010,06,19,06,36,11.10
2010,06,19,06,37,11.10
2010,06,19,06,38,11.10
2010,06,19,06,39,11.10
2010,06,19,06,40,11.10
2010,06,19,06,41,11.10
2010,06,19,06,42,11.10
2010,06,19,06,43,11.10
2010,06,19,06,44,11.20
2010,06,19,06,45,11.20
2010,06,19,06,46,11.20
2010,06,19,06,47,11.20
2010,06,19,06,48,11.20
2010,06,19,06,49,11.20
2010,06,19,06,50,11.30
2010,06,19,06,51,11.30
2010,06,19,06,52,11.30
2010,06,19,06,53,11.30
2010,06,19,06,54,11.30
2010,06,19,06,55,11.40
2010,06,19,06,56,11.40
2010,06,19,06,57,11.40
2010,06,19,06,58,11.40
2010,06,19,06,59,11.40
2010,06,19,07,00,11.40
2010,06,19,07,01,11.50
2010,06,19,07,02,11.60
2010,06,19,07,03,11.60
2010,06,19,07,04,11.60
2010,06,19,07,05,11.60
2010,06,19,07,06,11.60
2010,06,19,07,07,11.60
2010,06,19,07,08,11.60
2010,06,19,07,09,11.60
2010,06,19,07,10,11.60
2010,06,19,07,11,11.60
2010,06,19,07,12,11.60
2010,06,19,07,13,11.60
2010,06,19,07,14,11.70
2010,06,19,07,15,11.70
2010,06,19,07,16,11.70
2010,06,19,07,17,11.70
2010,06,19,07,18,11.70
2010,06,19,07,19,11.80
2010,06,19,07,20,11.80
2010,06,19,07,21,11.80
2010,06,19,07,22,11.80
2010,06,19,07,23,11.80
2010,06,19,07,24,11.80
2010,06,19,07,25,11.80
2010,06,19,07,26,11.80
2010,06,19,07,27,11.80
2010,06,19,07,28,11.80
2010,06,19,07,29,11.80
2010,06,19,07,30,11.90
2010,06,19,07,31,11.90
2010,06,19,07,32,11.90
2010,06,19,07,33,11.90
2010,06,19,07,34,11.90
2010,06,19,07,35,11.90
2010,06,19,07,36,11.90
2010,06,19,07,37,11.90
2010,06,19,07,38,12.00
2010,06,19,07,39,12.00
2010,06,19,07,40,12.00
2010,06,19,07,41,12.00
2010,06,19,07,42,12.10
2010,06,19,07,43,12.10
2010,06,19,07,44,12.10
2010,06,19,07,45,12.10
2010,06,19,07,46,12.10
2010,06,19,07,47,12.10
2010,06,19,07,48,12.10
2010,06,19,07,49,12.10
2010,06,19,07,50,12.10
2010,06,19,07,51,12.20
2010,06,19,07,52,12.20
2010,06,19,07,53,12.20
2010,06,19,07,54,12.20
2010,06,19,07,55,12.30
2010,06,19,07,56,12.30
2010,06,19,07,57,12.30
2010,06,19,07,58,12.30
2010,06,19,07,59,12.30
2010,06,19,08,00,12.30
2010,06,19,08,01,12.40
2010,06,19,08,02,12.40
2010,06,19,08,03,12.40
2010,06,19,08,04,12.40
2010,06,19,08,05,12.50
2010,06,19,08,06,12.50
2010,06,19,08,07,12.50
2010,06,19,08,08,12.60
2010,06,19,08,09,12.60
2010,06,19,08,10,12.60
2010,06,19,08,11,12.70
2010,06,19,08,12,12.80
2010,06,19,08,13,12.90
2010,06,19,08,14,12.90
2010,06,19,08,15,13.00
2010,06,19,08,16,13.00
2010,06,19,08,17,13.10
2010,06,19,08,18,13.10
2010,06,19,08,19,13.10
2010,06,19,08,20,13.10
2010,06,19,08,21,13.10
2010,06,19,08,22,13.20
2010,06,19,08,23,13.20
2010,06,19,08,24,13.20
2010,06,19,08,25,13.30
2010,06,19,08,26,13.30
2010,06,19,08,27,13.30
2010,06,19,08,28,13.40
2010,06,19,08,29,13.40
2010,06,19,08,30,13.50
2010,06,19,08,31,13.50
2010,06,19,08,32,13.60
2010,06,19,08,33,13.70
2010,06,19,08,34,13.70
2010,06,19,08,35,13.80
2010,06,19,08,36,13.90
2010,06,19,08,37,14.00
2010,06,19,08,38,14.10
2010,06,19,08,39,14.20
2010,06,19,08,40,14.20
2010,06,19,08,41,14.30
2010,06,19,08,42,14.30
2010,06,19,08,43,14.30
2010,06,19,08,44,14.30
2010,06,19,08,45,14.30
2010,06,19,08,46,14.30
2010,06,19,08,47,14.40
2010,06,19,08,48,14.40
2010,06,19,08,49,14.40
2010,06,19,08,50,14.40
2010,06,19,08,51,14.40
2010,06,19,08,52,14.40
2010,06,19,08,53,14.40
2010,06,19,08,54,14.30
2010,06,19,08,55,14.20
2010,06,19,08,56,14.20
2010,06,19,08,57,14.20
2010,06,19,08,58,14.20
2010,06,19,08,59,14.10
2010,06,19,09,00,14.00
2010,06,19,09,01,14.00
2010,06,19,09,02,13.90
2010,06,19,09,03,13.90
2010,06,19,09,04,13.90
2010,06,19,09,05,13.90
2010,06,19,09,06,13.80
2010,06,19,09,07,13.90
2010,06,19,09,08,13.90
2010,06,19,09,09,13.90
2010,06,19,09,10,14.00
2010,06,19,09,11,14.00
2010,06,19,09,12,14.10
2010,06,19,09,13,14.20
2010,06,19,09,14,14.20
2010,06,19,09,15,14.30
2010,06,19,09,16,14.40
2010,06,19,09,17,14.40
2010,06,19,09,18,14.50
2010,06,19,09,19,14.50
2010,06,19,09,20,14.50
2010,06,19,09,21,14.50
2010,06,19,09,22,14.50
2010,06,19,09,23,14.50
2010,06,19,09,24,14.60
2010,06,19,09,25,14.60
2010,06,19,09,26,14.70
2010,06,19,09,27,14.80
2010,06,19,09,28,14.90
2010,06,19,09,29,15.00
2010,06,19,09,30,15.10
2010,06,19,09,31,15.20
2010,06,19,09,32,15.20
2010,06,19,09,33,15.30
2010,06,19,09,34,15.30
2010,06,19,09,35,15.40
2010,06,19,09,36,15.40
2010,06,19,09,37,15.50
2010,06,19,09,38,15.50
2010,06,19,09,39,15.60
2010,06,19,09,40,15.60
2010,06,19,09,41,15.60
2010,06,19,09,42,15.70
2010,06,19,09,43,15.70
2010,06,19,09,44,15.70
2010,06,19,09,45,15.70
2010,06,19,09,46,15.80
2010,06,19,09,47,15.80
2010,06,19,09,48,15.80
2010,06,19,09,49,15.80
2010,06,19,09,50,15.90
2010,06,19,09,51,15.90
2010,06,19,09,52,16.00
2010,06,19,09,53,16.10
2010,06,19,09,54,16.10
2010,06,19,09,55,16.20
2010,06,19,09,56,16.30
2010,06,19,09,57,16.40
2010,06,19,09,58,16.40
2010,06,19,09,59,16.40
2010,06,19,10,00,16.50
2010,06,19,10,01,16.60
2010,06,19,10,02,16.60
2010,06,19,10,03,16.70
2010,06,19,10,04,16.70
2010,06,19,10,05,16.90
2010,06,19,10,06,16.90
2010,06,19,10,07,16.90
2010,06,19,10,08,16.80
2010,06,19,10,09,16.70
2010,06,19,10,10,16.70
2010,06,19,10,11,16.70
2010,06,19,10,12,16.60
2010,06,19,10,13,16.50
2010,06,19,10,14,16.40
2010,06,19,10,15,16.30
2010,06,19,10,16,16.20
2010,06,19,10,17,16.10
2010,06,19,10,18,16.00
2010,06,19,10,19,15.90
2010,06,19,10,20,15.80
2010,06,19,10,21,15.80
2010,06,19,10,22,15.80
2010,06,19,10,23,15.80
2010,06,19,10,24,15.80
2010,06,19,10,25,15.80
2010,06,19,10,26,15.80
2010,06,19,10,27,15.80
2010,06,19,10,28,15.90
2010,06,19,10,29,15.90
2010,06,19,10,30,16.00
2010,06,19,10,31,16.10
2010,06,19,10,32,16.10
2010,06,19,10,33,16.10
2010,06,19,10,34,16.10
2010,06,19,10,35,16.10
2010,06,19,10,36,16.10
2010,06,19,10,37,16.10
2010,06,19,10,38,16.10
2010,06,19,10,39,16.10
2010,06,19,10,40,16.10
2010,06,19,10,41,16.10
2010,06,19,10,42,16.10
2010,06,19,10,43,16.10
2010,06,19,10,44,16.00
2010,06,19,10,45,15.90
2010,06,19,10,46,15.90
2010,06,19,10,47,15.90
2010,06,19,10,48,15.90
2010,06,19,10,49,15.90
2010,06,19,10,50,16.00
2010,06,19,10,51,16.10
2010,06,19,10,52,16.10
2010,06,19,10,53,16.20
2010,06,19,10,54,16.20
2010,06,19,10,55,16.30
2010,06,19,10,56,16.40
2010,06,19,10,57,16.40
2010,06,19,10,58,16.40
2010,06,19,10,59,16.40
2010,06,19,11,00,16.40
2010,06,19,11,01,16.40
2010,06,19,11,02,16.40
2010,06,19,11,03,16.40
2010,06,19,11,04,16.40
2010,06,19,11,05,16.40
2010,06,19,11,06,16.40
2010,06,19,11,07,16.40
2010,06,19,11,08,16.50
2010,06,19,11,09,16.60
2010,06,19,11,10,16.60
2010,06,19,11,11,16.60
2010,06,19,11,12,16.60
2010,06,19,11,13,16.70
2010,06,19,11,14,16.70
2010,06,19,11,15,16.80
2010,06,19,11,16,16.80
2010,06,19,11,17,16.80
2010,06,19,11,18,16.80
2010,06,19,11,19,16.80
2010,06,19,11,20,16.70
2010,06,19,11,21,16.70
2010,06,19,11,22,16.70
2010,06,19,11,23,16.70
2010,06,19,11,24,16.70
2010,06,19,11,25,16.70
2010,06,19,11,26,16.80
2010,06,19,11,27,16.80
2010,06,19,11,28,16.90
2010,06,19,11,29,17.00
2010,06,19,11,30,17.20
2010,06,19,11,31,17.30
2010,06,19,11,32,17.40
2010,06,19,11,33,17.50
2010,06,19,11,34,17.50
2010,06,19,11,35,17.60
2010,06,19,11,36,17.60
2010,06,19,11,37,17.60
2010,06,19,11,38,17.70
2010,06,19,11,39,17.80
2010,06,19,11,40,17.80
2010,06,19,11,41,17.70
2010,06,19,11,42,17.60
2010,06,19,11,43,17.60
2010,06,19,11,44,17.50
2010,06,19,11,45,17.40
2010,06,19,11,46,17.40
2010,06,19,11,47,17.30
2010,06,19,11,48,17.30
2010,06,19,11,49,17.30
2010,06,19,11,50,17.30
2010,06,19,11,51,17.40
2010,06,19,11,52,17.50
2010,06,19,11,53,17.60
2010,06,19,11,54,17.60
2010,06,19,11,55,17.70
2010,06,19,11,56,17.80
2010,06,19,11,57,17.90
2010,06,19,11,58,18.00
2010,06,19,11,59,18.20
2010,06,19,12,00,18.20
2010,06,19,12,01,18.30
2010,06,19,12,02,18.40
2010,06,19,12,03,18.50
2010,06,19,12,04,18.50
2010,06,19,12,05,18.40
2010,06,19,12,06,18.40
2010,06,19,12,07,18.30
2010,06,19,12,08,18.10
2010,06,19,12,09,18.10
2010,06,19,12,10,18.10
2010,06,19,12,11,18.20
2010,06,19,12,12,18.20
2010,06,19,12,13,18.30
2010,06,19,12,14,18.30
2010,06,19,12,15,18.40
2010,06,19,12,16,18.40
2010,06,19,12,17,18.40
2010,06,19,12,18,18.50
2010,06,19,12,19,18.50
2010,06,19,12,20,18.60
2010,06,19,12,21,18.70
2010,06,19,12,22,18.70
2010,06,19,12,23,18.90
2010,06,19,12,24,19.00
2010,06,19,12,25,19.10
2010,06,19,12,26,19.10
2010,06,19,12,27,19.20
2010,06,19,12,28,19.20
2010,06,19,12,29,19.30
2010,06,19,12,30,19.40
2010,06,19,12,31,19.40
2010,06,19,12,32,19.50
2010,06,19,12,33,19.60
2010,06,19,12,34,19.70
2010,06,19,12,35,19.70
2010,06,19,12,36,19.80
2010,06,19,12,37,19.90
2010,06,19,12,38,20.00
2010,06,19,12,39,20.10
2010,06,19,12,40,20.20
2010,06,19,12,41,20.20
2010,06,19,12,42,20.40
2010,06,19,12,43,20.40
2010,06,19,12,44,20.40
2010,06,19,12,45,20.30
2010,06,19,12,46,20.20
2010,06,19,12,47,20.20
2010,06,19,12,48,20.00
2010,06,19,12,49,19.90
2010,06,19,12,50,19.90
2010,06,19,12,51,19.90
2010,06,19,12,52,19.90
2010,06,19,12,53,19.90
2010,06,19,12,54,19.80
2010,06,19,12,55,19.90
2010,06,19,12,56,19.90
2010,06,19,12,57,20.00
2010,06,19,12,58,20.10
2010,06,19,12,59,20.20
2010,06,19,13,00,20.20
2010,06,19,13,01,20.10
2010,06,19,13,02,20.00
2010,06,19,13,03,19.90
2010,06,19,13,04,19.90
2010,06,19,13,05,19.90
2010,06,19,13,06,19.90
2010,06,19,13,07,19.90
2010,06,19,13,08,19.90
2010,06,19,13,09,19.90
2010,06,19,13,10,20.10
2010,06,19,13,11,20.10
2010,06,19,13,12,20.20
2010,06,19,13,13,20.20
2010,06,19,13,14,20.20
2010,06,19,13,15,20.20
2010,06,19,13,16,20.20
2010,06,19,13,17,20.20
2010,06,19,13,18,20.20
2010,06,19,13,19,20.10
2010,06,19,13,20,20.10
2010,06,19,13,21,20.10
2010,06,19,13,22,20.20
2010,06,19,13,23,20.20
2010,06,19,13,24,20.20
2010,06,19,13,25,20.30
2010,06,19,13,26,20.30
2010,06,19,13,27,20.20
2010,06,19,13,28,20.20
2010,06,19,13,29,20.10
2010,06,19,13,30,20.10
2010,06,19,13,31,20.10
2010,06,19,13,32,20.20
2010,06,19,13,33,20.20
2010,06,19,13,34,20.20
2010,06,19,13,35,20.20
2010,06,19,13,36,20.20
2010,06,19,13,37,20.20
2010,06,19,13,38,20.30
2010,06,19,13,39,20.30
2010,06,19,13,40,20.20
2010,06,19,13,41,20.20
2010,06,19,13,42,20.10
2010,06,19,13,43,20.00
2010,06,19,13,44,20.00
2010,06,19,13,45,19.90
2010,06,19,13,46,20.00
2010,06,19,13,47,20.10
2010,06,19,13,48,20.10
2010,06,19,13,49,20.10
2010,06,19,13,50,20.10
2010,06,19,13,51,19.90
2010,06,19,13,52,19.90
2010,06,19,13,53,19.90
2010,06,19,13,54,19.90
2010,06,19,13,55,19.90
2010,06,19,13,56,20.10
2010,06,19,13,57,20.20
2010,06,19,13,58,20.20
2010,06,19,13,59,20.20
2010,06,19,14,00,20.00
2010,06,19,14,01,19.60
2010,06,19,14,02,19.20
2010,06,19,14,03,18.90
2010,06,19,14,04,18.70
2010,06,19,14,05,18.60
2010,06,19,14,06,18.60
2010,06,19,14,07,18.50
2010,06,19,14,08,18.40
2010,06,19,14,09,18.40
2010,06,19,14,10,18.50
2010,06,19,14,11,18.50
2010,06,19,14,12,18.40
2010,06,19,14,13,18.40
2010,06,19,14,14,18.30
2010,06,19,14,15,18.30
2010,06,19,14,16,18.20
2010,06,19,14,17,18.00
2010,06,19,14,18,17.90
2010,06,19,14,19,17.80
2010,06,19,14,20,17.80
2010,06,19,14,21,17.80
2010,06,19,14,22,17.90
2010,06,19,14,23,17.90
2010,06,19,14,24,17.90
2010,06,19,14,25,17.80
2010,06,19,14,26,17.80
2010,06,19,14,27,17.90
2010,06,19,14,28,17.90
2010,06,19,14,29,18.00
2010,06,19,14,30,18.10
2010,06,19,14,31,18.30
2010,06,19,14,32,18.40
2010,06,19,14,33,18.50
2010,06,19,14,34,18.60
2010,06,19,14,35,18.80
2010,06,19,14,36,18.90
2010,06,19,14,37,19.00
2010,06,19,14,38,19.10
2010,06,19,14,39,19.30
2010,06,19,14,40,19.40
2010,06,19,14,41,19.60
2010,06,19,14,42,19.70
2010,06,19,14,43,19.80
2010,06,19,14,44,19.90
2010,06,19,14,45,19.90
2010,06,19,14,46,20.00
2010,06,19,14,47,20.10
2010,06,19,14,48,20.20
2010,06,19,14,49,20.20
2010,06,19,14,50,20.40
2010,06,19,14,51,20.50
2010,06,19,14,52,20.60
2010,06,19,14,53,20.80
2010,06,19,14,54,20.90
2010,06,19,14,55,21.00
2010,06,19,14,56,21.10
2010,06,19,14,57,21.20
2010,06,19,14,58,21.20
2010,06,19,14,59,21.10
2010,06,19,15,00,21.10
2010,06,19,15,01,21.00
2010,06,19,15,02,21.00
2010,06,19,15,03,21.00
2010,06,19,15,04,20.90
2010,06,19,15,05,21.00
2010,06,19,15,06,21.00
2010,06,19,15,07,21.10
2010,06,19,15,08,21.10
2010,06,19,15,09,21.20
2010,06,19,15,10,21.20
2010,06,19,15,11,21.10
2010,06,19,15,12,21.20
2010,06,19,15,13,21.20
2010,06,19,15,14,21.10
2010,06,19,15,15,21.10
2010,06,19,15,16,21.10
2010,06,19,15,17,21.10
2010,06,19,15,18,21.10
2010,06,19,15,19,21.20
2010,06,19,15,20,21.30
2010,06,19,15,21,21.30
2010,06,19,15,22,21.40
2010,06,19,15,23,21.50
2010,06,19,15,24,21.60
2010,06,19,15,25,21.60
2010,06,19,15,26,21.60
2010,06,19,15,27,21.60
2010,06,19,15,28,21.60
2010,06,19,15,29,21.60
2010,06,19,15,30,21.60
2010,06,19,15,31,21.60
2010,06,19,15,32,21.60
2010,06,19,15,33,21.60
2010,06,19,15,34,21.60
2010,06,19,15,35,21.40
2010,06,19,15,36,21.40
2010,06,19,15,37,21.40
2010,06,19,15,38,21.50
2010,06,19,15,39,21.60
2010,06,19,15,40,21.70
2010,06,19,15,41,21.70
2010,06,19,15,42,21.70
2010,06,19,15,43,21.60
2010,06,19,15,44,21.60
2010,06,19,15,45,21.60
2010,06,19,15,46,21.60
2010,06,19,15,47,21.60
2010,06,19,15,48,21.60
2010,06,19,15,49,21.60
2010,06,19,15,50,21.60
2010,06,19,15,51,21.60
2010,06,19,15,52,21.60
2010,06,19,15,53,21.60
2010,06,19,15,54,21.60
2010,06,19,15,55,21.50
2010,06,19,15,56,21.40
2010,06,19,15,57,21.30
2010,06,19,15,58,21.30
2010,06,19,15,59,21.30
2010,06,19,16,00,21.30
2010,06,19,16,01,21.30
2010,06,19,16,02,21.40
2010,06,19,16,03,21.40
2010,06,19,16,04,21.40
2010,06,19,16,05,21.40
2010,06,19,16,06,21.50
2010,06,19,16,07,21.60
2010,06,19,16,08,21.60
2010,06,19,16,09,21.70
2010,06,19,16,10,21.70
2010,06,19,16,11,21.70
2010,06,19,16,12,21.70
2010,06,19,16,13,21.60
2010,06,19,16,14,21.40
2010,06,19,16,15,21.30
2010,06,19,16,16,21.30
2010,06,19,16,17,21.20
2010,06,19,16,18,21.20
2010,06,19,16,19,21.30
2010,06,19,16,20,21.30
2010,06,19,16,21,21.30
2010,06,19,16,22,21.30
2010,06,19,16,23,21.50
2010,06,19,16,24,21.50
2010,06,19,16,25,21.40
2010,06,19,16,26,21.40
2010,06,19,16,27,21.30
2010,06,19,16,28,21.20
2010,06,19,16,29,21.10
2010,06,19,16,30,21.00
2010,06,19,16,31,21.00
2010,06,19,16,32,21.00
2010,06,19,16,33,21.00
2010,06,19,16,34,21.00
2010,06,19,16,35,20.80
2010,06,19,16,36,20.70
2010,06,19,16,37,20.60
2010,06,19,16,38,20.50
2010,06,19,16,39,20.40
2010,06,19,16,40,20.40
2010,06,19,16,41,20.50
2010,06,19,16,42,20.50
2010,06,19,16,43,20.60
2010,06,19,16,44,20.60
2010,06,19,16,45,20.70
2010,06,19,16,46,20.70
2010,06,19,16,47,20.80
2010,06,19,16,48,20.80
2010,06,19,16,49,20.80
2010,06,19,16,50,20.80
2010,06,19,16,51,20.80
2010,06,19,16,52,20.80
2010,06,19,16,53,20.80
2010,06,19,16,54,20.80
2010,06,19,16,55,20.90
2010,06,19,16,56,20.90
2010,06,19,16,57,21.00
2010,06,19,16,58,21.00
2010,06,19,16,59,21.00
2010,06,19,17,00,20.90
2010,06,19,17,01,20.80
2010,06,19,17,02,20.70
2010,06,19,17,03,20.70
2010,06,19,17,04,20.60
2010,06,19,17,05,20.60
2010,06,19,17,06,20.60
2010,06,19,17,07,20.70
2010,06,19,17,08,20.70
2010,06,19,17,09,20.70
2010,06,19,17,10,20.60
2010,06,19,17,11,20.60
2010,06,19,17,12,20.60
2010,06,19,17,13,20.60
2010,06,19,17,14,20.60
2010,06,19,17,15,20.50
2010,06,19,17,16,20.50
2010,06,19,17,17,20.50
2010,06,19,17,18,20.60
2010,06,19,17,19,20.60